Terug naar catalogus

ELECTRON R/B

ActiefVLEO
NORAD 100245·ROCKET BODY·🇺🇸 United States

Gelanceerd Aug 6, 2026 vanaf Rocket Lab Launch Complex 1

Loading…

Volgende Passages (komende 24 uur)

TLE

VersSource: Space-Track

Epoch: Sep 14, 2026, 01:36 UTC

1 A0245U 26180C   26257.06670890  .00775675  24561-3  12180-2 0  9998
2 A0245  41.9948 152.8337 0124699 153.6608 207.0661 15.89918729  6082

Volg ELECTRON R/B in realtime met AllMySat

Download on the App Store